Platteville, WI

6:54 PM CDT on July 27, 2017 (GMT -0500)
Platteville Municipal

Weather History for KPVB - January, 2012

Change the Weather History Date:

Monday, January 30, 2012

  Actual Average (KDBQ) Record (KDBQ)
Temperature  
Mean Temperature 30 °F -  
Max Temperature 41 °F 25 °F 52 °F (1890)
Min Temperature 19 °F 9 °F -25 °F (1951)
Degree Days  
Heating Degree Days 35    
Moisture  
Dew Point 25 °F    
Average Humidity 74    
Maximum Humidity 81    
Minimum Humidity 65    
Precipitation  
Precipitation 0.00 in - - ()
Sea Level Pressure  
Sea Level Pressure 29.86 in    
Wind  
Wind Speed 10 mph (SSE)    
Max Wind Speed 17 mph    
Max Gust Speed 20 mph    
Visibility 10 miles    
Events      
Averages and records for this station are not official NWS values.
T = Trace of Precipitation, MM = Missing Value Source: NWS Daily Summary

Daily Weather History Graph

Daily Weather History Graph

Search for Another Location

Airport or City:

Trip Planner

Search our weather history database for the weather conditions in past years. The results will help you decide how hot, cold, wet, or windy it might be!

Date:

Astronomy

Jan. 30, 2012 Rise Set
Actual Time 7:18 AM CST 5:11 PM CST
Civil Twilight 6:48 AM CST 5:42 PM CST
Nautical Twilight 6:14 AM CST 6:16 PM CST
Astronomical Twilight 5:41 AM CST 6:49 PM CST
Moon 10:29 AM CST (1/30) 12:07 AM CST (1/30)
Length of Visible Light 10h 53m
Length of Day
9h 53m
Waxing Crescent, 46% of the Moon is Illuminated
Jan 30
Waxing Crescent
Jan 30
First Quarter
Feb 7
Full
Feb 14
Last Quarter
Feb 21
New

Hourly Weather History & Observations

Time (CST) Temp. Windchill Dew Point Humidity Pressure Visibility Wind Dir Wind Speed Gust Speed Precip Events Conditions
12:15 AM 19.4 °F 8.6 °F 14.0 °F 80% 30.12 in 10.0 mi ESE 9.2 mph - N/A   Overcast
12:35 AM 21.2 °F 10.9 °F 14.0 °F 74% 30.10 in 10.0 mi ESE 9.2 mph - N/A   Overcast
12:55 AM 21.2 °F 10.9 °F 14.0 °F 74% 30.08 in 10.0 mi East 9.2 mph - N/A   Overcast
1:15 AM 21.2 °F 10.1 °F 15.8 °F 80% 30.06 in 10.0 mi East 10.4 mph - N/A   Overcast
1:35 AM 23.0 °F 11.1 °F 15.8 °F 74% 30.03 in 10.0 mi ESE 12.7 mph - N/A   Overcast
1:55 AM 23.0 °F 11.7 °F 17.6 °F 80% 30.03 in 10.0 mi ESE 11.5 mph - N/A   Overcast
2:15 AM 23.0 °F 10.6 °F 17.6 °F 80% 30.02 in 10.0 mi ESE 13.8 mph - N/A   Overcast
2:35 AM 23.0 °F 13.1 °F 17.6 °F 80% 30.03 in 10.0 mi ESE 9.2 mph - N/A   Overcast
2:55 AM 24.8 °F 14.6 °F 17.6 °F 74% 30.02 in 10.0 mi ESE 10.4 mph - N/A   Overcast
3:15 AM 24.8 °F 13.4 °F 19.4 °F 80% 29.99 in 10.0 mi ESE 12.7 mph - N/A   Overcast
3:35 AM 24.8 °F 13.4 °F 19.4 °F 80% 29.98 in 10.0 mi ESE 12.7 mph - N/A   Overcast
3:55 AM 24.8 °F 14.0 °F 19.4 °F 80% 29.97 in 10.0 mi ESE 11.5 mph - N/A   Overcast
4:15 AM 26.6 °F 15.2 °F 19.4 °F 74% 29.95 in 10.0 mi SE 13.8 mph - N/A   Overcast
4:35 AM 26.6 °F 14.7 °F 19.4 °F 74% 29.94 in 10.0 mi SE 15.0 mph - N/A   Overcast
4:55 AM 28.4 °F 16.2 °F 19.4 °F 69% 29.93 in 10.0 mi SE 17.3 mph - N/A   Overcast
5:15 AM 28.4 °F 17.0 °F 21.2 °F 74% 29.92 in 10.0 mi SE 15.0 mph - N/A   Overcast
5:35 AM 28.4 °F 17.0 °F 21.2 °F 74% 29.92 in 10.0 mi SE 15.0 mph - N/A   Overcast
5:55 AM 28.4 °F 17.5 °F 21.2 °F 74% 29.90 in 10.0 mi SE 13.8 mph - N/A   Overcast
6:15 AM 28.4 °F 17.0 °F 21.2 °F 74% 29.88 in 10.0 mi SE 15.0 mph 19.6 mph N/A   Overcast
6:35 AM 28.4 °F 17.5 °F 21.2 °F 74% 29.88 in 10.0 mi SE 13.8 mph - N/A   Overcast
6:55 AM 28.4 °F 17.0 °F 21.2 °F 74% 29.86 in 10.0 mi SE 15.0 mph - N/A   Overcast
7:15 AM 30.2 °F 18.9 °F 21.2 °F 69% 29.85 in 10.0 mi SSE 16.1 mph - N/A   Overcast
7:35 AM 30.2 °F 19.8 °F 23.0 °F 75% 29.85 in 10.0 mi SSE 13.8 mph - N/A   Overcast
7:55 AM 30.2 °F 20.2 °F 23.0 °F 75% 29.85 in 10.0 mi SSE 12.7 mph - N/A   Overcast
8:15 AM 32.0 °F 22.5 °F 23.0 °F 69% 29.87 in 10.0 mi SSE 12.7 mph - N/A   Mostly Cloudy
8:55 AM 32.0 °F 22.1 °F 23.0 °F 69% 29.84 in 10.0 mi SSE 13.8 mph - N/A   Scattered Clouds
9:15 AM 30.2 °F 22.6 °F 23.0 °F 75% 29.84 in 10.0 mi SSE 8.1 mph - N/A   Clear
9:35 AM 32.0 °F 22.1 °F 24.8 °F 75% 29.82 in 10.0 mi SSE 13.8 mph - N/A   Clear
9:55 AM 32.0 °F 23.0 °F 26.6 °F 80% 29.82 in 10.0 mi South 11.5 mph - N/A   Clear
10:15 AM 33.8 °F 25.8 °F 26.6 °F 75% 29.82 in 10.0 mi South 10.4 mph - N/A   Clear
10:35 AM 33.8 °F 25.8 °F 28.4 °F 81% 29.83 in 10.0 mi South 10.4 mph - N/A   Clear
10:55 AM 33.8 °F 29.6 °F 28.4 °F 81% 29.83 in 10.0 mi South 4.6 mph - N/A   Scattered Clouds
11:15 AM 33.8 °F 26.4 °F 28.4 °F 81% 29.82 in 10.0 mi South 9.2 mph - N/A   Clear
11:35 AM 35.6 °F 29.9 °F 28.4 °F 75% 29.81 in 10.0 mi South 6.9 mph - N/A   Clear
11:55 AM 35.6 °F 28.0 °F 30.2 °F 81% 29.80 in 10.0 mi South 10.4 mph - N/A   Clear
12:15 PM 37.4 °F 30.8 °F 30.2 °F 75% 29.79 in 10.0 mi SSW 9.2 mph - N/A   Clear
12:35 PM 37.4 °F 30.3 °F 30.2 °F 75% 29.78 in 10.0 mi SSW 10.4 mph - N/A   Clear
12:55 PM 39.2 °F 34.2 °F 30.2 °F 70% 29.79 in 10.0 mi SSW 6.9 mph - N/A   Clear
1:15 PM 39.2 °F 32.5 °F 32.0 °F 75% 29.77 in 10.0 mi SSW 10.4 mph - N/A   Clear
2:15 PM 41.0 °F 35.2 °F 32.0 °F 70% 29.75 in 10.0 mi SSW 9.2 mph - N/A   Clear
2:35 PM 39.2 °F 33.6 °F 32.0 °F 75% 29.76 in 10.0 mi SSW 8.1 mph - N/A   Clear
2:55 PM 39.2 °F 34.2 °F 32.0 °F 75% 29.75 in 10.0 mi SSW 6.9 mph - N/A   Clear
3:15 PM 39.2 °F 35.0 °F 32.0 °F 75% 29.75 in 10.0 mi SSW 5.8 mph - N/A   Clear
3:35 PM 41.0 °F 37.1 °F 32.0 °F 70% 29.75 in 10.0 mi South 5.8 mph - N/A   Clear
4:15 PM 41.0 °F 37.1 °F 32.0 °F 70% 29.76 in 10.0 mi South 5.8 mph - N/A   Clear
4:35 PM 41.0 °F 37.1 °F 32.0 °F 70% 29.77 in 10.0 mi South 5.8 mph - N/A   Clear
4:55 PM 39.2 °F 35.0 °F 32.0 °F 75% 29.77 in 10.0 mi South 5.8 mph - N/A   Clear
5:15 PM 39.2 °F 37.0 °F 32.0 °F 75% 29.77 in 10.0 mi SW 3.5 mph - N/A   Clear
5:35 PM 41.0 °F 39.0 °F 32.0 °F 70% 29.77 in 10.0 mi South 3.5 mph - N/A   Clear
5:55 PM 39.2 °F - 30.2 °F 70% 29.78 in 10.0 mi Calm Calm - N/A   Clear
6:15 PM 41.0 °F 38.0 °F 32.0 °F 70% 29.78 in 10.0 mi SSE 4.6 mph - N/A   Clear
6:35 PM 41.0 °F 38.0 °F 30.2 °F 65% 29.78 in 10.0 mi SE 4.6 mph - N/A   Clear
6:55 PM 41.0 °F 37.1 °F 32.0 °F 70% 29.78 in 10.0 mi SE 5.8 mph - N/A   Clear
7:15 PM 37.4 °F 32.1 °F 30.2 °F 75% 29.78 in 10.0 mi SE 6.9 mph - N/A   Clear
7:35 PM 39.2 °F 33.6 °F 30.2 °F 70% 29.77 in 10.0 mi SE 8.1 mph - N/A   Clear
7:55 PM 39.2 °F 32.5 °F 32.0 °F 75% 29.76 in 10.0 mi SSE 10.4 mph - N/A   Clear
8:15 PM 41.0 °F 35.2 °F 32.0 °F 70% 29.77 in 10.0 mi SSE 9.2 mph - N/A   Clear
8:35 PM 41.0 °F 35.8 °F 32.0 °F 70% 29.78 in 10.0 mi SSE 8.1 mph - N/A   Clear
8:55 PM 37.4 °F 31.4 °F 32.0 °F 81% 29.78 in 10.0 mi South 8.1 mph - N/A   Clear
9:15 PM 39.2 °F 32.5 °F 32.0 °F 75% 29.78 in 10.0 mi South 10.4 mph - N/A   Clear
9:35 PM 39.2 °F 32.5 °F 32.0 °F 75% 29.77 in 10.0 mi SSE 10.4 mph - N/A   Clear
9:55 PM 39.2 °F 32.5 °F 32.0 °F 75% 29.77 in 10.0 mi South 10.4 mph - N/A   Clear
10:15 PM 37.4 °F 31.4 °F 32.0 °F 81% 29.77 in 10.0 mi South 8.1 mph - N/A   Clear
10:55 PM 37.4 °F 31.4 °F 32.0 °F 81% 29.78 in 10.0 mi South 8.1 mph - N/A   Clear
11:15 PM 37.4 °F 30.8 °F 32.0 °F 81% 29.78 in 10.0 mi South 9.2 mph - N/A   Clear
11:35 PM 39.2 °F 33.0 °F 32.0 °F 75% 29.78 in 10.0 mi South 9.2 mph - N/A   Clear
11:55 PM 39.2 °F 32.5 °F 32.0 °F 75% 29.77 in 10.0 mi South 10.4 mph - N/A   Clear